sat.trackr.live / text

‹ back to catalog

STARLINK-30555

NORAD 58040 · 2023-156N

PAYLOAD ACTIVE UNKNOWN

§ Identity

Operator
Country
US
Launch date
2023-10-09
Launch site
AFWTR
Launch vehicle
Mass (kg)
RCS (m²)

Purposes: comms

External: N2YO · Heavens-Above · Gunter

§ Orbital elements

Epoch: 2026-05-25T02:01:39.117792Z

Period
93.85 min
Inclination
53.1604°
Eccentricity
0.0001467
Mean motion
15.34393208 rev/d
Perigee alt
461.7 km
Apogee alt
463.7 km
Semi-major
6,840.9 km
B*
2.3250e-5
RAAN
173.0251°
Arg perigee
85.2020°
Mean anomaly
274.9150°
Rev number
14,673

§ Raw data

STARLINK-305551 58040U 23156N   26145.08448053  .00000409  00000+0  23250-4 0  99922 58040  53.1604 173.0251 0001467  85.2020 274.9150 15.34393208146739

JSON: /api/v1/satellites/58040 · /tle

For live sub-satellite position, see the globe view (requires WebGL).

§ Visibility from observer

Set your observer location to see the next 7 days of passes ≥ 10°. The values pass through the URL so the page stays shareable.

No JS? Fill the form by hand. The geolocation button needs JavaScript.